Regional Weather Roundup
Issued by NWS Memphis, TN

Home | Current Version | Previous Version | Text Only | Print | Product List | Glossary On
Versions: 1 2 3 4 5 6 7 8 9 10 11 12 13 14 15 16 17 18 19 20 21 22 23 24 25 26 27 28 29 30 31 32 33 34 35 36 37 38 39 40 41 42 43 44 45 46 47 48 49 50
000
ASUS44 KMEG 171510
RWRMEG
MEMPHIS CWA HOURLY WEATHER ROUNDUP
NATIONAL WEATHER SERVICE MEMPHIS TN
1000 AM CDT WED SEP 17 2014

...WEST TENNESSEE...

CITY           SKY/WX    TMP DP  RH WIND       PRES   REMARKS
MEMPHIS INTL   CLOUDY    72  57  60 E7        30.02S
NWS MEMPHIS      N/A     67 N/A N/A MISG        N/A
JACKSON        PTSUNNY   67  56  67 E3        30.04R
LEXINGTON      SUNNY     66  57  72 CALM      30.04R
SAVANNAH       SUNNY     66  61  82 VRB3      30.04R
DYERSBURG      CLOUDY    63  48  59 CALM      30.06R
UNION CITY     SUNNY     63  55  77 CALM      30.05R
PARIS          SUNNY     61  55  82 CALM      30.07R
HUNTINGDON     PTSUNNY   64  55  72 S3        30.06R


...EASTERN ARKANSAS...

CITY           SKY/WX    TMP DP  RH WIND       PRES   REMARKS
JONESBORO      CLOUDY    65  58  78 E5        30.04R
WEST MEMPHIS   CLOUDY    69  61  75 E7        30.01S
BATESVILLE     CLOUDY    64  59  82 CALM      30.04R
NEWPORT        CLOUDY    65  60  83 E6        30.04F
WALNUT RIDGE   CLOUDY    63  55  77 E6        30.03F
BLYTHEVILLE    CLOUDY    65  59  81 E5        30.05R
NW BLYTHEVILLE CLOUDY    64  57  77 CALM      30.05R
SEARCY         CLOUDY    66  61  84 CALM      30.03S
STUTTGART      MOSUNNY   72  63  73 SE7       30.02R
PINE BLUFF     SUNNY     73  65  75 SE6       30.01S
MONTICELLO     SUNNY     75  68  78 CALM      30.00S


...NORTH MISSISSIPPI...

CITY           SKY/WX    TMP DP  RH WIND       PRES   REMARKS
TUPELO         SUNNY     73  60  63 E6        30.02S
OXFORD         SUNNY     70  59  68 SE6       30.05R
OLIVE BRANCH   CLOUDY    66  63  88 E6        30.04R
CLARKSDALE     PTSUNNY   73  64  73 CALM      30.03R
CORINTH        SUNNY     70  57  64 NE5       30.03R
GRENADA        SUNNY     73  63  68 E7        30.01F
GREENWOOD      SUNNY     78  66  66 NE6       29.99F
COLUMBUS       MOSUNNY   73  66  77 VRB3      30.01S
STARKVILLE     FAIR      73  64  73 NE3       30.01S
GOLDEN TRIANGL PTSUNNY   72  64  78 CALM      30.02S


...SOUTHEAST MISSOURI...

CITY           SKY/WX    TMP DP  RH WIND       PRES   REMARKS
WEST PLAINS    TSTM      60  58  92 E3        30.07R FOG
POPLAR BLUFF   CLOUDY    58  51  78 CALM      30.05R
CAPE GIRARDEAU CLOUDY    61  55  81 SE3       30.06R


...NORTHWEST ALABAMA...

CITY           SKY/WX    TMP DP  RH WIND       PRES   REMARKS
MUSCLE SHOALS  SUNNY     73  59  61 NW3       30.03S


...MIDDLE TENNESSEE...

CITY           SKY/WX    TMP DP  RH WIND       PRES   REMARKS
NASHVILLE      CLOUDY    60  57  89 NE3       30.06R FOG
CLARKSVILLE    FOG       55  55 100 CALM      30.05R VSB 1/4
DICKSON        PTSUNNY   55  55 100 CALM      30.04S
COLUMBIA       CLOUDY    57  57 100 CALM      30.03R
LEWISBURG      CLOUDY    57  57 100 N5        30.04R VSB 1/2


...WESTERN KENTUCKY...

CITY           SKY/WX    TMP DP  RH WIND       PRES   REMARKS
PADUCAH        PTSUNNY   65  57  75 SE5       30.04R
FORT CAMPBELL  CLOUDY    56  56 100 NE2       30.05R FOG


...CENTRAL ARKANSAS...

CITY           SKY/WX    TMP DP  RH WIND       PRES   REMARKS
LITTLE ROCK    PTSUNNY   72  62  71 SE6       30.02R


SKY/WX REPORTED AS FAIR MEANS FEW OR NO CLOUDS BELOW
12 THOUSAND FEET.



USA.gov is the U.S. government's official web portal to all federal, state and local government web resources and services.